Regional Weather Roundup
Issued by NWS

Home | Current Version | Previous Version | Graphics & Text | Print | Product List | Glossary On
Versions: 1 2 3 4 5 6 7 8 9 10 11 12 13 14 15 16 17 18 19 20 21 22 23 24 25 26 27 28 29 30 31 32 33 34 35 36 37 38 39 40 41 42 43 44 45 46 47 48 49 50
000
ASUS45 KSLC 292010
RWRUT

UTAH REGIONAL WEATHER ROUNDUP
NATIONAL WEATHER SERVICE SALT LAKE CITY UT
200 PM MDT FRI MAY 29 2015

UTZ001>011-023>025-292100-

NORTHERN UTAH

CITY           SKY/WX    TMP DP  RH WIND       PRES   REMARKS
BRIGHAM CITY   SUNNY     69  38  31 CALM      30.20F
HILL AFB       SUNNY     69  40  34 VRB1      30.20F
LOGAN          SUNNY     68  46  45 N6        30.20F
OGDEN          SUNNY     72  44  36 N8        30.19F
PROVO AIRPORT  MOSUNNY   70  43  37 SW5       30.20F
SALT LAKE CITY MOSUNNY   73  43  33 N9        30.17F
VERNAL         MOSUNNY   64  41  42 VRB3      30.25F
WENDOVER       SUNNY     72  45  37 SE7       30.18F
HEBER CITY     MOSUNNY   70  34  26 CALM      30.22F
WEST JORDAN    SUNNY     72  41  33 NW7       30.20F

$$

UTZ012>022-026-027-292100-

SOUTHERN/CENTRAL UTAH

CITY           SKY/WX    TMP DP  RH WIND       PRES   REMARKS
BLANDING       SUNNY     74  28  18 NE7       30.27F
BRYCE CANYON   PTSUNNY   63  38  39 S18       30.31S
CEDAR CITY     SUNNY     75  44  33 N5        30.17F
DELTA          MOSUNNY   74  35  24 CALM      30.17F
HANKSVILLE     SUNNY     77  32  19 S5        30.18F
MILFORD        SUNNY     76  44  32 N10       30.17F
MOAB/CYNLANDS  SUNNY     77  33  20 N7        30.16F
PRICE          SUNNY     72  34  24 S12       30.22F
ST GEORGE      CLEAR     90  39  17 N10       30.00F
KANAB          MOSUNNY   81  34  18 NW3       30.16F

$$

REGIONAL REPORTS     COLORADO/ARIZONA

CITY           SKY/WX    TMP DP  RH WIND       PRES   REMARKS
CRAIG, CO      MOSUNNY   62  42  47 NW7       30.28F
GRAND JUNCTION SUNNY     71  39  31 VRB3      30.19F
RIFLE          PTSUNNY   67  38  34 VRB3      30.23F
MONTROSE       MOSUNNY   70  32  24 CALM      30.24F
CORTEZ         SUNNY     72  29  20 N10G20    30.20F
PAGE, AZ       SUNNY     82  38  20 MISG      30.11F
GRAND CANYON   LGT RAIN  65  38  36 N13       30.29R
KINGMAN        SUNNY     92  21   7 SW18G30   30.03F
FLAGSTAFF      CLOUDY    65  36  34 N14       30.29R

$$

REGIONAL REPORTS    NEVADA/IDAHO/WYOMING

CITY           SKY/WX    TMP DP  RH WIND       PRES   REMARKS
LAS VEGAS, NV  MOSUNNY   95  27   9 CALM      29.91F
ELY            PTSUNNY   70  40  33 NE9       30.20F
ELKO           SUNNY     76  36  23 NW9       30.14F
POCATELLO, ID  MOSUNNY   71  46  40 NW9       30.20F
BURLEY         SUNNY     74  47  38 VRB7      30.14F
EVANSTON, WY   SUNNY     60  36  40 CALM      30.30F
ROCK SPRINGS   LGT RAIN  53  42  66 N9        30.32S
KEMMERER       MOSUNNY   61  36  39 CALM      30.33S

$$


USA.gov is the U.S. government's official web portal to all federal, state and local government web resources and services.